FW2584 Weather Reports


Display with metric or nautical units.
time (UTC)temp
F
wind
direction
speed
MPH
gust
MPH
rain 1hr
in
rain 24hr
in
rain mn
in
humidity
%
barometer
mb
20260509203521 75 0 0.0 1.0 0.00 0.00 0.00 78 1010.2
20260509203040 75 0 0.0 1.0 0.00 0.00 0.00 78 1010.1
20260509202524 75 0 0.0 1.0 0.00 0.00 0.00 79 1010.1
20260509202022 75 0 0.0 1.0 0.00 0.00 0.00 81 1010.2
20260509201540 75 0 0.0 1.0 0.00 0.00 0.00 79 1010.1
20260509201025 75 0 0.0 1.0 0.00 0.00 0.00 78 1010.1
20260509200522 75 0 0.0 3.0 0.00 0.00 0.00 77 1010.0
20260509200038 75 0 0.0 3.0 0.00 0.00 0.00 77 1010.1
20260509195522 75 0 0.0 1.0 0.00 0.00 0.00 78 1010.2
20260509195021 75 0 0.0 5.0 0.00 0.00 0.00 78 1010.2
20260509194533 75 0 0.0 5.0 0.00 0.00 0.00 78 1010.3
20260509194023 75 0 0.0 3.0 0.00 0.00 0.00 78 1010.3
20260509193525 75 0 0.0 3.0 0.00 0.00 0.00 79 1010.5
20260509193040 74 0 0.0 3.0 0.00 0.00 0.00 79 1010.6
20260509192521 75 0 0.0 3.0 0.00 0.00 0.00 79 1010.8
20260509192022 75 0 0.0 3.0 0.00 0.00 0.00 79 1010.8
20260509191539 75 0 0.0 3.0 0.00 0.00 0.00 79 1010.9
20260509191025 75 0 1.0 3.0 0.00 0.00 0.00 79 1010.9
20260509190521 74 0 1.0 3.0 0.00 0.00 0.00 79 1010.8
20260509190043 74 0 0.0 3.0 0.00 0.00 0.00 79 1010.6
20260509185522 74 0 0.0 3.0 0.00 0.00 0.00 79 1010.6
20260509185023 75 0 0.0 4.0 0.00 0.00 0.00 79 1010.8
20260509184546 75 205 1.0 4.0 0.00 0.00 0.00 79 1010.9
20260509184023 74 0 0.0 3.0 0.00 0.00 0.00 80 1010.8
20260509183522 74 190 0.0 3.0 0.00 0.00 0.00 80 1010.7
20260509183034 73 188 0.0 3.0 0.00 0.00 0.00 82 1011.0
20260509182525 73 199 0.0 4.0 0.00 0.00 0.00 81 1010.9
20260509182022 74 0 1.0 4.0 0.00 0.00 0.00 81 1011.1
20260509181549 74 0 0.0 2.0 0.00 0.00 0.00 81 1011.2
20260509181023 74 0 0.0 2.0 0.00 0.00 0.00 80 1011.2
20260509180523 74 0 0.0 2.0 0.00 0.00 0.00 81 1011.1
20260509180038 74 0 0.0 3.0 0.00 0.00 0.00 81 1011.0
20260509175525 74 0 0.0 3.0 0.00 0.00 0.00 81 1011.2
20260509175021 73 0 0.0 2.0 0.00 0.00 0.00 82 1011.2
20260509174541 73 0 0.0 2.0 0.00 0.00 0.00 82 1011.2
20260509174023 73 242 0.0 4.0 0.00 0.00 0.00 82 1011.2
20260509173522 73 0 0.0 4.0 0.00 0.00 0.00 82 1011.3
20260509173041 73 242 0.0 3.0 0.00 0.00 0.00 81 1011.4
20260509172522 73 246 0.0 3.0 0.00 0.00 0.00 81 1011.3
20260509172023 73 0 0.0 3.0 0.00 0.00 0.00 81 1011.2
20260509171534 73 0 0.0 3.0 0.00 0.00 0.00 82 1011.4
20260509171022 73 246 1.0 3.0 0.00 0.00 0.00 80 1011.4
20260509170523 73 246 0.0 4.0 0.00 0.00 0.00 82 1011.7
20260509170045 72 0 0.0 4.0 0.00 0.00 0.00 81 1011.7
20260509165519 72 0 1.0 7.0 0.00 0.00 0.00 81 1011.7
20260509165020 72 0 1.0 7.0 0.00 0.00 0.00 80 1011.7
20260509164540 73 0 1.0 6.0 0.00 0.00 0.00 82 1011.7
20260509164025 72 264 0.0 6.0 0.00 0.00 0.00 81 1012.0
20260509163522 72 264 0.0 3.0 0.00 0.00 0.00 82 1012.0
20260509163039 72 0 0.0 2.0 0.00 0.00 0.00 82 1012.1
20260509162521 72 0 0.0 2.0 0.00 0.00 0.00 82 1012.2
20260509162025 72 0 0.0 2.0 0.00 0.00 0.00 84 1012.1
20260509161537 71 0 0.0 1.0 0.00 0.00 0.00 84 1012.0
20260509161023 71 0 0.0 0.0 0.00 0.00 0.00 84 1012.2
20260509160523 71 0 0.0 2.0 0.00 0.00 0.00 84 1012.3
20260509160037 71 0 0.0 2.0 0.00 0.00 0.00 84 1012.4
20260509155522 71 0 0.0 1.0 0.00 0.00 0.00 84 1012.3
20260509155022 71 0 0.0 1.0 0.00 0.00 0.00 83 1012.3
20260509154540 71 0 0.0 1.0 0.00 0.00 0.00 83 1012.5
20260509154025 71 0 0.0 4.0 0.00 0.00 0.00 82 1012.7
20260509153524 72 0 0.0 4.0 0.00 0.00 0.00 83 1012.6
20260509153041 72 0 0.0 2.0 0.00 0.00 0.00 83 1012.5
20260509152519 72 0 0.0 1.0 0.00 0.00 0.00 82 1012.4
20260509152023 72 0 0.0 1.0 0.00 0.00 0.00 82 1012.3
20260509151534 71 0 0.0 1.0 0.00 0.00 0.00 83 1012.2
20260509151024 71 0 0.0 0.0 0.00 0.00 0.00 83 1012.3
20260509150523 71 0 0.0 2.0 0.00 0.00 0.00 84 1012.4
20260509150038 70 0 0.0 2.0 0.00 0.00 0.00 84 1012.5
20260509145522 70 0 0.0 1.0 0.00 0.00 0.00 86 1012.6
20260509145021 70 0 0.0 1.0 0.00 0.00 0.00 86 1012.6
20260509144535 70 0 0.0 1.0 0.00 0.00 0.00 87 1012.9
20260509144022 69 0 0.0 1.0 0.00 0.00 0.00 87 1013.0
20260509143523 68 0 0.0 1.0 0.00 0.00 0.00 88 1013.1
20260509143037 68 0 0.0 1.0 0.00 0.00 0.00 87 1013.1
20260509142521 68 0 0.0 1.0 0.00 0.00 0.00 89 1013.0
20260509142023 67 0 0.0 1.0 0.00 0.00 0.00 89 1013.0
20260509141535 67 0 0.0 0.0 0.00 0.00 0.00 89 1013.2
20260509141022 67 0 0.0 0.0 0.00 0.00 0.00 89 1013.2
20260509140520 67 0 0.0 1.0 0.00 0.00 0.00 90 1013.3
20260509140047 66 0 0.0 1.0 0.00 0.00 0.00 90 1013.3
20260509135525 66 0 0.0 0.0 0.00 0.00 0.00 91 1013.3
20260509135021 65 0 0.0 0.0 0.00 0.00 0.00 91 1013.2
20260509134539 65 0 0.0 0.0 0.00 0.00 0.00 92 1013.1
20260509134022 64 0 0.0 0.0 0.00 0.00 0.00 92 1013.3
20260509133523 64 0 0.0 0.0 0.00 0.00 0.00 93 1013.3
20260509133037 63 0 0.0 0.0 0.00 0.00 0.00 92 1013.3
20260509132522 63 0 0.0 0.0 0.00 0.00 0.00 93 1013.5
20260509132021 63 0 0.0 0.0 0.00 0.00 0.00 94 1013.5
20260509131539 62 0 0.0 0.0 0.00 0.00 0.00 94 1013.5
20260509131022 62 0 0.0 0.0 0.00 0.00 0.00 94 1013.6
20260509130520 62 0 0.0 0.0 0.00 0.00 0.00 94 1013.7
20260509130035 62 0 0.0 0.0 0.00 0.00 0.00 95 1013.7
20260509125521 61 0 0.0 0.0 0.00 0.00 0.00 95 1013.7
20260509125023 61 0 0.0 0.0 0.00 0.00 0.00 95 1013.8
20260509124533 61 0 0.0 0.0 0.00 0.00 0.00 95 1013.8
20260509124022 61 0 0.0 0.0 0.00 0.00 0.00 96 1013.8
20260509123522 61 0 0.0 0.0 0.00 0.00 0.00 96 1013.9
20260509123039 60 0 0.0 0.0 0.00 0.00 0.00 96 1013.8
20260509122522 60 0 0.0 0.0 0.00 0.00 0.00 96 1013.8
20260509122023 60 0 0.0 0.0 0.00 0.00 0.00 96 1013.6
20260509121540 60 0 0.0 0.0 0.00 0.00 0.00 97 1013.7
20260509121022 60 0 0.0 0.0 0.00 0.00 0.00 97 1013.7
20260509120523 59 0 0.0 0.0 0.00 0.00 0.00 97 1013.7
20260509120038 59 0 0.0 0.0 0.00 0.00 0.00 97 1013.7
20260509115524 59 0 0.0 0.0 0.00 0.00 0.00 97 1013.6
20260509115022 59 0 0.0 0.0 0.00 0.00 0.00 97 1013.8
20260509114538 59 0 0.0 0.0 0.00 0.00 0.00 97 1013.6
20260509114022 59 0 0.0 0.0 0.00 0.00 0.00 97 1013.7
20260509113523 58 0 0.0 0.0 0.00 0.00 0.00 97 1013.6
20260509113039 58 0 0.0 0.0 0.00 0.00 0.00 97 1013.6
20260509112522 58 0 0.0 0.0 0.00 0.00 0.00 97 1013.8
20260509112022 58 0 0.0 0.0 0.00 0.00 0.00 97 1013.6
20260509111539 58 0 0.0 0.0 0.00 0.00 0.00 97 1013.5
20260509111023 58 0 0.0 0.0 0.00 0.00 0.00 97 1013.5
20260509110523 58 0 0.0 0.0 0.00 0.00 0.00 97 1013.4
20260509110043 58 0 0.0 0.0 0.00 0.00 0.00 97 1013.1
20260509105522 57 0 0.0 0.0 0.00 0.00 0.00 97 1013.2
20260509105022 57 0 0.0 0.0 0.00 0.00 0.00 97 1013.1
20260509104534 57 0 0.0 0.0 0.00 0.00 0.00 97 1013.0
20260509104021 57 0 0.0 0.0 0.00 0.00 0.00 97 1012.9
20260509103522 57 0 0.0 0.0 0.00 0.00 0.00 97 1012.9
20260509103038 57 0 0.0 0.0 0.00 0.00 0.00 97 1012.8
20260509102521 57 0 0.0 0.0 0.00 0.00 0.00 97 1012.7
20260509102022 57 0 0.0 0.0 0.00 0.00 0.00 97 1012.9
20260509101551 57 0 0.0 0.0 0.00 0.00 0.00 97 1012.9
20260509101026 57 0 0.0 0.0 0.00 0.00 0.00 97 1012.8
20260509100521 57 0 0.0 0.0 0.00 0.00 0.00 97 1013.0
20260509100045 57 0 0.0 0.0 0.00 0.00 0.00 97 1012.9
20260509095521 57 0 0.0 0.0 0.00 0.00 0.00 97 1012.9
20260509095021 57 0 0.0 0.0 0.00 0.00 0.00 96 1012.7
20260509094534 57 0 0.0 0.0 0.00 0.00 0.00 96 1012.5
20260509094021 57 0 0.0 0.0 0.00 0.00 0.00 96 1012.6
20260509093522 57 0 0.0 0.0 0.00 0.00 0.00 96 1012.4
20260509093032 57 0 0.0 0.0 0.00 0.00 0.00 96 1012.2
20260509092522 57 0 0.0 0.0 0.00 0.00 0.00 96 1012.4
20260509092021 57 0 0.0 0.0 0.00 0.00 0.00 96 1012.5
20260509091540 57 0 0.0 0.0 0.00 0.00 0.00 96 1012.6
20260509091022 57 0 0.0 0.0 0.00 0.00 0.00 96 1012.6
20260509090521 57 0 0.0 0.0 0.00 0.00 0.00 96 1012.5
20260509090044 57 0 0.0 0.0 0.00 0.00 0.00 96 1012.7
20260509085522 57 0 0.0 0.0 0.00 0.00 0.00 96 1012.6
20260509085021 57 0 0.0 0.0 0.00 0.00 0.00 95 1012.8
20260509084544 57 0 0.0 0.0 0.00 0.00 0.00 95 1012.7
20260509084025 57 0 0.0 0.0 0.00 0.00 0.00 95 1012.7
20260509083520 57 0 0.0 0.0 0.00 0.00 0.00 95 1012.7
20260509083039 57 0 0.0 0.0 0.00 0.00 0.00 95 1012.7
20260509082520 57 0 0.0 0.0 0.00 0.00 0.00 95 1012.5
20260509082025 57 0 0.0 0.0 0.00 0.00 0.00 95 1012.6
20260509081535 58 0 0.0 0.0 0.00 0.00 0.00 94 1012.5
20260509081025 58 0 0.0 0.0 0.00 0.00 0.00 94 1012.8
20260509080522 58 0 0.0 0.0 0.00 0.00 0.00 94 1013.0
20260509080037 58 0 0.0 0.0 0.00 0.00 0.00 94 1013.1
20260509075519 58 0 0.0 0.0 0.00 0.00 0.00 94 1013.0
20260509075021 58 0 0.0 0.0 0.00 0.00 0.00 94 1013.2
20260509074543 58 0 0.0 0.0 0.00 0.00 0.00 94 1013.4
20260509074022 58 0 0.0 0.0 0.00 0.00 0.00 94 1013.5
20260509073523 58 0 0.0 0.0 0.00 0.00 0.00 93 1013.6
20260509073105 58 0 0.0 0.0 0.00 0.00 0.00 93 1013.7
20260509072523 58 0 0.0 0.0 0.00 0.00 0.00 93 1013.7
20260509072025 58 0 0.0 0.0 0.00 0.00 0.00 93 1013.5
20260509071537 58 0 0.0 0.0 0.00 0.00 0.00 93 1013.7
20260509071023 58 0 0.0 0.0 0.00 0.00 0.00 93 1013.7
20260509070523 58 0 0.0 0.0 0.00 0.00 0.00 93 1013.7
20260509070032 58 0 0.0 0.0 0.00 0.00 0.00 93 1013.9
20260509065522 58 0 0.0 0.0 0.00 0.00 0.00 93 1014.0
20260509065021 58 0 0.0 0.0 0.00 0.00 0.00 93 1014.0
20260509064537 58 0 0.0 0.0 0.00 0.00 0.00 92 1013.9
20260509064020 58 0 0.0 0.0 0.00 0.00 0.00 92 1014.1
20260509063522 58 0 0.0 0.0 0.00 0.00 0.00 92 1014.1
20260509063034 59 0 0.0 0.0 0.00 0.00 0.00 92 1014.3
20260509062522 59 0 0.0 0.0 0.00 0.00 0.00 92 1014.4
20260509062023 59 0 0.0 0.0 0.00 0.00 0.00 92 1014.5
20260509061536 59 0 0.0 0.0 0.00 0.00 0.00 92 1014.7
20260509061021 59 0 0.0 0.0 0.00 0.00 0.00 92 1014.9
20260509060527 59 0 0.0 0.0 0.00 0.00 0.00 92 1015.0
20260509060046 59 0 0.0 0.0 0.00 0.00 0.00 93 1015.1
20260509055521 58 0 0.0 0.0 0.00 0.00 0.00 93 1015.0
20260509055022 59 0 0.0 0.0 0.00 0.00 0.00 93 1014.9
20260509054535 59 0 0.0 0.0 0.00 0.00 0.00 93 1014.7
20260509054022 59 0 0.0 0.0 0.00 0.00 0.00 92 1014.6
20260509053523 59 0 0.0 0.0 0.00 0.00 0.00 93 1014.6
20260509053036 59 0 0.0 0.0 0.00 0.00 0.00 93 1014.9
20260509052523 59 0 0.0 0.0 0.00 0.00 0.00 92 1014.9
20260509052023 59 0 0.0 0.0 0.00 0.00 0.00 92 1015.0
20260509051539 59 0 0.0 0.0 0.00 0.00 0.00 92 1015.0
20260509051023 59 0 0.0 0.0 0.00 0.00 0.00 92 1015.1
20260509050523 59 0 0.0 0.0 0.00 0.00 0.00 91 1015.2
20260509050039 59 0 0.0 0.0 0.00 0.00 0.00 91 1015.2
20260509045523 59 0 0.0 0.0 0.00 0.00 0.00 91 1015.4
20260509045023 59 0 0.0 0.0 0.00 0.00 0.00 91 1015.7
20260509044538 59 0 0.0 0.0 0.00 0.00 0.00 91 1015.6
20260509044023 59 0 0.0 0.0 0.00 0.00 0.00 91 1015.7
20260509043522 59 0 0.0 0.0 0.00 0.00 0.00 91 1015.7
20260509043037 59 0 0.0 0.0 0.00 0.00 0.00 91 1015.7
20260509042522 59 0 0.0 0.0 0.00 0.00 0.00 91 1015.7
20260509042023 59 0 0.0 0.0 0.00 0.00 0.00 91 1015.6
20260509041535 59 0 0.0 0.0 0.00 0.00 0.00 91 1015.7
20260509041020 59 0 0.0 0.0 0.00 0.00 0.00 91 1015.6
20260509040521 59 0 0.0 0.0 0.00 0.00 0.00 90 1015.5
20260509040048 59 0 0.0 0.0 0.00 0.00 0.00 90 1015.4
20260509035523 59 0 0.0 0.0 0.00 0.00 0.00 90 1015.4
20260509035024 59 0 0.0 0.0 0.00 0.00 0.00 90 1015.5
20260509034547 59 0 0.0 0.0 0.00 0.00 0.00 89 1015.6
20260509034023 59 0 0.0 0.0 0.00 0.00 0.00 89 1015.5
20260509033523 59 0 0.0 0.0 0.00 0.00 0.00 89 1015.6
20260509033033 60 0 0.0 0.0 0.00 0.00 0.00 89 1015.6
20260509032525 60 0 0.0 0.0 0.00 0.00 0.00 88 1015.7
20260509032021 60 0 0.0 0.0 0.00 0.00 0.00 89 1015.7
20260509031535 60 0 0.0 0.0 0.00 0.00 0.00 88 1015.8
20260509031023 60 0 0.0 0.0 0.00 0.00 0.00 88 1015.9
20260509030521 60 0 0.0 0.0 0.00 0.00 0.00 87 1015.8
20260509030035 60 0 0.0 0.0 0.00 0.00 0.00 87 1015.8
20260509025522 60 0 0.0 0.0 0.00 0.00 0.00 86 1015.9
20260509025022 60 0 0.0 0.0 0.00 0.00 0.00 86 1015.9
20260509024538 60 0 0.0 0.0 0.00 0.00 0.00 85 1016.0
20260509024022 60 0 0.0 0.0 0.00 0.00 0.00 85 1016.0
20260509023520 60 0 0.0 0.0 0.00 0.00 0.00 85 1015.8
20260509023034 61 0 0.0 0.0 0.00 0.00 0.00 85 1015.9
20260509022523 61 0 0.0 0.0 0.00 0.00 0.00 85 1016.0
20260509022022 60 0 0.0 0.0 0.00 0.00 0.00 85 1016.1
20260509021536 60 0 0.0 0.0 0.00 0.00 0.00 85 1015.9
20260509021023 60 0 0.0 0.0 0.00 0.00 0.00 86 1015.8
20260509020522 60 0 0.0 0.0 0.00 0.00 0.00 88 1015.9
20260509020039 60 0 0.0 0.0 0.00 0.00 0.00 86 1015.7
20260509015521 60 0 0.0 0.0 0.00 0.00 0.00 85 1015.6
20260509015022 60 0 0.0 0.0 0.00 0.00 0.00 86 1015.4
20260509014541 60 0 0.0 0.0 0.00 0.00 0.00 85 1015.3
20260509014022 61 0 0.0 0.0 0.00 0.00 0.00 86 1015.3
20260509013522 61 0 0.0 0.0 0.00 0.00 0.00 85 1015.5
20260509013035 61 0 0.0 0.0 0.00 0.00 0.00 84 1015.5
20260509012522 61 0 0.0 0.0 0.00 0.00 0.00 84 1015.5
20260509012023 61 0 0.0 0.0 0.00 0.00 0.00 85 1015.6
20260509011550 62 0 0.0 0.0 0.00 0.00 0.00 85 1015.6
20260509011022 62 0 0.0 0.0 0.00 0.00 0.00 84 1015.5
20260509010523 62 0 0.0 0.0 0.00 0.00 0.00 83 1015.3
20260509010040 62 0 0.0 0.0 0.00 0.00 0.00 80 1015.4
20260509005522 62 0 0.0 0.0 0.00 0.00 0.00 81 1015.2
20260509005020 62 0 0.0 0.0 0.00 0.00 0.00 83 1015.1
20260509004543 62 0 0.0 0.0 0.00 0.00 0.00 84 1015.1
20260509004021 63 0 0.0 0.0 0.00 0.00 0.00 83 1014.8
20260509003524 63 0 0.0 0.0 0.00 0.00 0.00 84 1014.7
20260509003035 63 0 0.0 0.0 0.00 0.00 0.00 83 1014.7
20260509002522 63 0 0.0 0.0 0.00 0.00 0.00 82 1014.7
20260509002022 63 0 0.0 0.0 0.00 0.00 0.00 81 1014.7
20260509001533 63 0 0.0 0.0 0.00 0.00 0.00 80 1014.6
20260509001023 64 0 0.0 0.0 0.00 0.00 0.00 80 1014.6
20260509000522 64 0 0.0 0.0 0.00 0.00 0.00 80 1014.7
20260509000037 64 0 0.0 0.0 0.00 0.00 0.00 78 1014.5
20260508235523 65 0 0.0 0.0 0.00 0.00 0.00 78 1014.6
20260508235022 65 0 0.0 0.0 0.00 0.00 0.00 76 1014.5
20260508234533 66 0 0.0 0.0 0.00 0.00 0.00 75 1014.4
20260508234022 66 0 0.0 0.0 0.00 0.00 0.00 73 1014.5
20260508233523 66 0 0.0 0.0 0.00 0.00 0.00 74 1014.5
20260508233040 66 0 0.0 0.0 0.00 0.00 0.00 75 1014.5
20260508232521 67 0 0.0 0.0 0.00 0.00 0.00 73 1014.4
20260508232022 67 0 0.0 0.0 0.00 0.00 0.00 72 1014.5
20260508231539 67 0 0.0 0.0 0.00 0.00 0.00 71 1014.5
20260508231023 68 0 0.0 0.0 0.00 0.00 0.00 71 1014.4
20260508230523 68 0 0.0 0.0 0.00 0.00 0.00 68 1014.5
20260508230036 68 0 0.0 0.0 0.00 0.00 0.00 66 1014.6
20260508225523 68 0 0.0 0.0 0.00 0.00 0.00 67 1014.5
20260508225022 68 0 0.0 0.0 0.00 0.00 0.00 65 1014.6
20260508224539 68 0 0.0 0.0 0.00 0.00 0.00 65 1014.7
20260508224025 69 0 0.0 0.0 0.00 0.00 0.00 65 1014.6
20260508223521 69 0 0.0 0.0 0.00 0.00 0.00 63 1014.6
20260508223042 69 0 0.0 0.0 0.00 0.00 0.00 64 1014.5
20260508222523 70 0 0.0 0.0 0.00 0.00 0.00 66 1014.4
20260508222021 70 0 0.0 0.0 0.00 0.00 0.00 57 1014.6
20260508221535 70 0 0.0 0.0 0.00 0.00 0.00 55 1014.7
20260508221025 70 0 0.0 0.0 0.00 0.00 0.00 55 1014.6
20260508220520 70 0 0.0 0.0 0.00 0.00 0.00 58 1014.5
20260508220039 70 0 0.0 0.0 0.00 0.00 0.00 58 1014.4
20260508215522 71 0 0.0 0.0 0.00 0.00 0.00 59 1014.1
20260508215024 71 0 0.0 0.0 0.00 0.00 0.00 54 1014.1
20260508214548 71 0 0.0 0.0 0.00 0.00 0.00 56 1014.2
20260508214022 71 0 0.0 0.0 0.00 0.00 0.00 54 1014.2
20260508213522 71 0 0.0 0.0 0.00 0.00 0.00 53 1014.4
20260508213036 71 0 0.0 0.0 0.00 0.00 0.00 55 1014.4
20260508212523 71 0 0.0 0.0 0.00 0.00 0.00 55 1014.4
20260508212026 71 0 0.0 0.0 0.00 0.00 0.00 52 1014.4
20260508211534 71 0 0.0 1.0 0.00 0.00 0.00 49 1014.2
20260508211022 72 0 0.0 1.0 0.00 0.00 0.00 49 1014.2
20260508210521 72 0 0.0 1.0 0.00 0.00 0.00 45 1014.1
20260508210034 72 0 0.0 0.0 0.00 0.00 0.00 47 1014.2
20260508205520 73 0 0.0 0.0 0.00 0.00 0.00 49 1014.3
20260508205021 73 0 0.0 0.0 0.00 0.00 0.00 50 1014.5
20260508204544 73 0 0.0 0.0 0.00 0.00 0.00 49 1014.5
20260508204026 73 0 0.0 1.0 0.00 0.00 0.00 48 1014.7